Chignik, AK

5:23 PM AKST on January 16, 2018 (GMT -0900)
Chignik

Weather History for PAJC - October, 2012

Change the Weather History Date:

Wednesday, October 10, 2012

  Actual Average Record
Temperature  
Mean Temperature 48 °F -  
Max Temperature 51 °F 45 °F 55 °F (2002)
Min Temperature 46 °F 38 °F 33 °F (2001)
Degree Days  
Heating Degree Days 16    
Moisture  
Dew Point 42 °F    
Average Humidity 76    
Maximum Humidity 87    
Minimum Humidity 66    
Precipitation  
Precipitation 0.00 in - - ()
Sea Level Pressure  
Sea Level Pressure 29.83 in    
Wind  
Wind Speed - (North)    
Max Wind Speed -    
Max Gust Speed -    
Visibility 10 miles    
Events      
Averages and records for this station are not official NWS values.
T = Trace of Precipitation, MM = Missing Value Source: NWS Daily Summary

Daily Weather History Graph

Daily Weather History Graph

Search for Another Location

Airport or City:

Trip Planner

Search our weather history database for the weather conditions in past years. The results will help you decide how hot, cold, wet, or windy it might be!

Date:

Astronomy

Oct. 10, 2012 Rise Set
Actual Time 8:56 AM AKDT 7:42 PM AKDT
Civil Twilight 8:18 AM AKDT 8:20 PM AKDT
Nautical Twilight 7:35 AM AKDT 9:03 PM AKDT
Astronomical Twilight 6:51 AM AKDT 9:47 PM AKDT
Moon 2:51 AM AKDT (10/10) 5:37 PM AKDT (10/10)
Length of Visible Light 12h 01m
Length of Day
10h 46m
Waning Crescent, 26% of the Moon is Illuminated
Oct 10
Waning Crescent
Oct 15
New
Oct 21
First Quarter
Oct 29
Full
Nov 6
Last Quarter

Hourly Weather History & Observations

Time (AKDT) Temp. Dew Point Humidity Pressure Visibility Wind Dir Wind Speed Gust Speed Precip Events Conditions
12:16 AM 48.2 °F 42.8 °F 82% 29.98 in 10.0 mi North - - N/A   Mostly Cloudy
12:36 AM 48.2 °F 42.8 °F 82% 29.98 in 10.0 mi North - - N/A   Overcast
12:56 AM 46.4 °F 42.8 °F 87% 29.97 in 10.0 mi North - - N/A   Overcast
1:16 AM 48.2 °F 42.8 °F 82% 29.97 in 10.0 mi North - - N/A   Scattered Clouds
1:36 AM 48.2 °F 42.8 °F 82% 29.96 in 10.0 mi North - - N/A   Scattered Clouds
1:56 AM 48.2 °F 42.8 °F 82% 29.96 in 10.0 mi North - - N/A   Partly Cloudy
2:16 AM 48.2 °F 42.8 °F 82% 29.95 in 10.0 mi North - - N/A   Clear
2:36 AM 48.2 °F 42.8 °F 82% 29.95 in 10.0 mi North - - N/A   Clear
2:56 AM 48.2 °F 42.8 °F 82% 29.94 in 10.0 mi North - - N/A   Clear
3:16 AM 48.2 °F 42.8 °F 82% 29.94 in 10.0 mi North - - N/A   Clear
3:36 AM 48.2 °F 42.8 °F 82% 29.94 in 10.0 mi North - - N/A   Clear
3:56 AM 48.2 °F 42.8 °F 82% 29.93 in 10.0 mi North - - N/A   Clear
4:16 AM 48.2 °F 41.0 °F 76% 29.92 in 10.0 mi North - - N/A   Clear
4:36 AM 48.2 °F 41.0 °F 76% 29.91 in 10.0 mi North - - N/A   Clear
4:56 AM 48.2 °F 41.0 °F 76% 29.91 in 10.0 mi North - - N/A   Clear
5:16 AM 48.2 °F 39.2 °F 71% 29.90 in 10.0 mi North - - N/A   Clear
5:36 AM 48.2 °F 39.2 °F 71% 29.89 in 10.0 mi North - - N/A   Clear
5:56 AM 50.0 °F 39.2 °F 66% 29.88 in 10.0 mi North - - N/A   Clear
6:16 AM 50.0 °F 39.2 °F 66% 29.88 in 10.0 mi North - - N/A   Clear
6:36 AM 48.2 °F 39.2 °F 71% 29.88 in 10.0 mi North - - N/A   Clear
6:56 AM 48.2 °F 39.2 °F 71% 29.88 in 10.0 mi North - - N/A   Clear
7:16 AM 48.2 °F 39.2 °F 71% 29.87 in 10.0 mi North - - N/A   Clear
7:36 AM 48.2 °F 39.2 °F 71% 29.87 in 10.0 mi North - - N/A   Clear
7:56 AM 48.2 °F 39.2 °F 71% 29.87 in 10.0 mi North - - N/A   Clear
8:16 AM 48.2 °F 41.0 °F 76% 29.87 in 10.0 mi North - - N/A   Partly Cloudy
8:56 AM 48.2 °F 41.0 °F 76% 29.85 in 10.0 mi North - - N/A   Clear
9:16 AM 48.2 °F 41.0 °F 76% 29.86 in 10.0 mi North - - N/A   Clear
9:36 AM 48.2 °F 41.0 °F 76% 29.86 in 10.0 mi North - - N/A   Clear
9:56 AM 50.0 °F 39.2 °F 66% 29.86 in 10.0 mi North - - N/A   Clear
10:16 AM 51.8 °F 41.0 °F 67% 29.85 in 10.0 mi North - - N/A   Clear
10:36 AM 51.8 °F 41.0 °F 67% 29.85 in 10.0 mi North - - N/A   Clear
10:56 AM 51.8 °F 41.0 °F 67% 29.85 in 10.0 mi North - - N/A   Clear
11:16 AM 51.8 °F 41.0 °F 67% 29.84 in 10.0 mi North - - N/A   Clear
11:36 AM 51.8 °F 42.8 °F 71% 29.84 in 10.0 mi North - - N/A   Clear
11:56 AM 51.8 °F 42.8 °F 71% 29.84 in 10.0 mi North - - N/A   Clear
12:16 PM 50.0 °F 42.8 °F 76% 29.85 in 10.0 mi North - - N/A   Clear
12:36 PM 50.0 °F 42.8 °F 76% 29.84 in 10.0 mi North - - N/A   Mostly Cloudy
1:16 PM 50.0 °F 42.8 °F 76% 29.83 in 10.0 mi North - - N/A   Scattered Clouds
1:36 PM 50.0 °F 42.8 °F 76% 29.82 in 10.0 mi North - - N/A   Scattered Clouds
1:56 PM 50.0 °F 42.8 °F 76% 29.81 in 10.0 mi North - - N/A   Scattered Clouds
2:16 PM 51.8 °F 42.8 °F 71% 29.81 in 10.0 mi North - - N/A   Partly Cloudy
2:36 PM 51.8 °F 42.8 °F 71% 29.80 in 10.0 mi North - - N/A   Clear
2:56 PM 51.8 °F 42.8 °F 71% 29.79 in 10.0 mi North - - N/A   Clear
3:16 PM 51.8 °F 42.8 °F 71% 29.79 in 10.0 mi North - - N/A   Scattered Clouds
3:36 PM 51.8 °F 42.8 °F 71% 29.78 in 10.0 mi North - - N/A   Overcast
4:16 PM 51.8 °F 42.8 °F 71% 29.78 in 10.0 mi North - - N/A   Overcast
4:36 PM 51.8 °F 42.8 °F 71% 29.77 in 10.0 mi North - - N/A   Scattered Clouds
4:56 PM 51.8 °F 42.8 °F 71% 29.77 in 10.0 mi North - - N/A   Clear
5:16 PM 51.8 °F 42.8 °F 71% 29.76 in 10.0 mi North - - N/A   Clear
5:36 PM 50.0 °F 42.8 °F 76% 29.76 in 10.0 mi North - - N/A   Clear
5:56 PM 50.0 °F 42.8 °F 76% 29.75 in 10.0 mi North - - N/A   Clear
6:16 PM 50.0 °F 42.8 °F 76% 29.75 in 10.0 mi North - - N/A   Mostly Cloudy
6:36 PM 50.0 °F 42.8 °F 76% 29.74 in 10.0 mi North - - N/A   Overcast
6:56 PM 50.0 °F 42.8 °F 76% 29.73 in 10.0 mi North - - N/A   Overcast
7:16 PM 48.2 °F 42.8 °F 82% 29.73 in 9.0 mi North - - N/A   Overcast
7:36 PM 48.2 °F 42.8 °F 82% 29.72 in 8.0 mi North - - N/A   Overcast
7:56 PM 50.0 °F 42.8 °F 76% 29.72 in 10.0 mi North - - N/A   Overcast
8:16 PM 48.2 °F 42.8 °F 82% 29.72 in 10.0 mi North - - N/A   Overcast
8:36 PM 50.0 °F 42.8 °F 76% 29.72 in 10.0 mi North - - N/A   Overcast
8:56 PM 50.0 °F 42.8 °F 76% 29.72 in 10.0 mi North - - N/A   Overcast
9:16 PM 48.2 °F 42.8 °F 82% 29.72 in 10.0 mi North - - N/A   Overcast
9:36 PM 48.2 °F 42.8 °F 82% 29.72 in 10.0 mi North - - N/A   Overcast
9:56 PM 48.2 °F 42.8 °F 82% 29.72 in 10.0 mi North - - N/A   Overcast
10:16 PM 48.2 °F 42.8 °F 82% 29.72 in 10.0 mi North - - N/A   Overcast
10:36 PM 48.2 °F 42.8 °F 82% 29.72 in 10.0 mi North - - N/A   Overcast
10:56 PM 48.2 °F 42.8 °F 82% 29.72 in 9.0 mi North - - N/A   Overcast
11:16 PM 48.2 °F 42.8 °F 82% 29.72 in 10.0 mi North - - N/A   Overcast
11:36 PM 48.2 °F 42.8 °F 82% 29.72 in 9.0 mi North - - N/A   Mostly Cloudy
11:56 PM 48.2 °F 42.8 °F 82% 29.72 in 7.0 mi North - - N/A   Overcast